User: anonymous   Login
Location: Unspecified
(0.0000°N, 0.0000°E)
Time: 00:22:20
(UTC+00:00)
Language:

ZACube-1 - Orbit

View from above orbital plane
View from above orbital plane
View from above satellite
View from above satellite

Ground track
Ground track

The orbit data is extracted from the following two-line orbital elements,

1 39417U 13066B   17231.07356713  .00000274  00000-0  40985-4 0  9999
2 39417  97.6247 270.2501 0060714  65.0135 295.7368 14.80742018202083
Epoch (UTC): 19 August 2017 01:45:56
Eccentricity: 0.0060714
inclination: 97.6247°
perigee height: 584 km
apogee height: 669 km
right ascension of ascending node: 270.2501°
argument of perigee: 65.0135°
revolutions per day: 14.80742018
mean anomaly at epoch: 295.7368°
orbit number at epoch: 20208

The dashed part of the orbit path shows where the satellite is in the earth's shadow,  

DLR